Dewpoint
13 15 15 16 16 16 17 17 17 17 17 17 17 17 17 16 15 15 16 16 14 13 13 13 13 13 13 14 13 13 14 15 16 17 17 16 17 17 17 17 17 17
12 13 14 16 16 15 15 16 17 17 17 16 16 17 17 17 16 14 15 15 15 15 14 13 13 13 13 14 14 13 14 14 14 17 18 17 17 17 17 17 17 17
12 13 14 15 16 16 16 16 16 16 17 17 17 17 17 17 17 16 15 15 16 17 17 15 15 14 14 14 13 14 16 15 15 17 17 16 16 17 17 17 17 17
12 13 15 16 16 17 17 17 16 16 16 17 17 17 17 17 17 17 16 15 14 15 16 16 15 16 16 15 13 15 16 16 15 15 15 15 15 16 17 17 17 17
13 14 15 16 17 17 17 17 17 16 16 17 17 17 17 16 16 17 17 16 15 15 16 16 15 16 16 15 14 16 17 17 17 15 13 13 15 16 17 17 17 17
14 13 14 16 16 17 17 17 17 17 17 17 17 17 17 16 16 16 17 17 16 17 17 17 17 17 17 17 16 16 16 16 17 16 14 14 15 17 17 17 17 17
15 14 14 15 16 16 16 17 17 16 17 17 17 17 17 17 17 16 16 16 17 17 17 17 17 17 17 18 17 16 15 15 15 15 13 14 15 16 16 17 17 16
16 15 15 16 16 16 16 16 17 17 17 17 17 17 17 17 17 17 16 16 17 17 17 17 17 16 16 18 18 17 17 17 16 16 15 15 15 15 15 16 17 16
15 16 16 16 16 16 16 16 16 17 17 16 17 17 17 17 17 17 17 16 16 17 16 16 17 16 17 18 17 17 17 17 17 18 18 18 17 17 17 17 17 17
15 16 16 16 16 16 16 16 16 16 17 17 17 16 17 17 16 17 17 16 16 16 16 16 17 17 17 17 17 17 17 16 16 17 17 17 18 18 17 17 17 18
16 16 16 17 16 16 16 16 16 16 16 17 16 16 16 17 17 17 17 16 16 17 17 17 17 17 17 17 17 17 17 17 17 17 17 17 17 17 17 17 17 17
16 16 17 17 16 16 16 16 16 15 16 17 17 16 16 17 17 17 17 17 17 18 18 17 17 17 17 17 17 17 17 18 18 18 17 17 18 17 17 17 17 17
15 17 17 17 17 15 14 16 16 16 16 16 16 16 16 16 17 17 17 18 18 18 17 17 17 17 17 17 17 17 17 17 17 17 17 17 17 17 17 17 17 17
13 16 17 17 16 14 13 13 15 16 16 16 17 17 16 16 16 16 17 17 17 17 17 17 17 17 17 17 17 17 17 17 17 17 17 17 17 17 17 17 17 17
13 15 15 15 15 14 13 12 13 15 16 17 17 17 16 16 16 16 16 16 17 17 17 17 17 16 16 16 16 17 16 16 16 16 16 16 16 17 17 17 17 17
14 14 15 15 15 15 15 13 12 14 16 17 17 17 17 16 16 16 16 16 16 17 17 16 16 16 16 16 16 16 16 15 15 15 15 14 15 15 16 16 17 17
14 15 15 16 16 16 16 16 14 14 16 17 16 16 16 15 16 16 17 17 16 16 16 16 16 16 16 15 15 15 15 15 15 15 15 15 15 16 16 16 16 16
14 15 16 16 16 16 16 16 16 15 15 14 14 15 15 15 16 16 16 16 17 16 16 16 16 16 16 15 15 14 14 14 14 15 16 16 16 17 17 17 16 16
15 15 15 15 16 15 14 14 15 16 15 15 15 17 16 15 15 15 15 16 17 17 17 16 16 15 15 15 15 15 14 14 14 15 15 16 16 17 16 16 16 16
15 15 14 13 14 15 15 14 14 15 15 16 16 16 16 16 16 16 16 16 16 17 17 16 16 15 16 15 15 15 15 14 15 15 15 15 16 16 16 16 16 16
16 16 15 14 13 14 14 15 15 14 15 15 15 15 15 16 17 17 16 16 15 16 17 16 16 15 15 15 15 15 15 15 15 15 15 15 16 16 16 16 16 15
16 16 16 16 15 14 13 15 15 15 15 15 15 15 15 15 16 16 16 16 16 17 17 16 15 15 15 15 15 15 15 15 16 16 16 16 16 17 16 16 16 16
15 15 16 16 15 14 14 15 15 15 15 15 15 16 16 16 16 16 16 16 16 16 16 16 15 15 15 15 16 16 16 16 16 16 16 16 16 16 16 16 16 16
15 15 16 16 15 14 15 15 16 16 16 16 16 16 16 17 17 16 16 16 16 16 16 16 15 16 16 16 16 16 16 16 16 16 16 16 16 16 16 16 16 16
16 16 16 15 15 15 15 16 16 16 16 16 16 16 16 16 16 16 16 16 16 16 16 16 16 16 16 16 16 15 15 15 15 15 15 15 15 15 15 15 15 16
16 16 16 16 15 16 16 16 16 17 16 16 16 15 15 15 16 16 16 16 16 16 16 16 16 16 15 15 15 14 14 14 14 14 14 14 14 14 14 14 14 14
Wind_Speed
15 14 12 11 10 9 9 8 7 7 7 6 6 5 5 6 7 7 7 7 7 6 7 7 6 6 6 6 7 7 7 7 6 6 7 7 6 6 6 6 6 7
15 15 14 12 12 11 10 9 8 8 8 7 7 6 6 6 6 7 8 7 6 6 7 7 7 7 7 7 8 7 8 9 7 6 7 8 7 7 7 7 7 8
16 15 15 13 12 11 9 9 10 10 8 8 8 7 6 6 6 7 8 8 7 6 7 7 7 7 7 7 9 7 7 9 8 7 9 9 8 8 8 8 8 8
16 16 15 13 12 11 10 10 10 10 9 9 8 8 7 8 7 7 8 9 8 8 8 8 7 7 7 8 8 7 8 9 9 9 10 10 9 9 9 9 9 9
16 17 16 14 13 12 11 10 10 10 10 10 9 8 9 10 9 7 7 8 8 8 7 8 7 7 7 8 8 7 7 7 8 9 10 9 9 8 8 8 9 9
17 17 17 16 15 14 12 11 11 11 10 10 10 9 9 10 9 9 8 8 7 7 7 7 7 7 7 8 8 7 7 6 7 10 10 8 8 8 7 8 9 10
17 17 17 16 15 15 14 12 12 12 11 10 10 10 10 10 10 10 10 9 8 8 8 8 9 9 8 8 9 9 8 7 8 10 9 8 8 8 8 8 10 11
18 17 17 16 16 15 15 14 14 13 12 12 11 11 11 10 10 9 10 9 8 9 9 9 10 10 8 8 9 9 8 7 7 8 8 8 8 9 8 8 10 11
18 17 17 17 16 16 15 14 14 13 13 13 11 11 11 11 10 9 10 10 10 10 11 9 10 9 8 8 9 9 9 8 8 8 8 8 8 8 8 8 9 10
19 18 17 17 16 16 15 15 14 13 13 13 12 11 10 11 11 10 11 11 10 10 10 9 9 9 8 8 9 9 9 9 9 9 9 9 8 8 8 8 9 10
19 19 18 17 17 16 15 14 14 13 13 12 12 11 10 10 10 10 11 11 10 9 9 9 9 8 8 8 8 9 9 9 9 9 9 9 9 9 9 9 10 10
20 19 18 18 18 17 16 14 13 13 13 12 11 11 11 10 10 10 10 10 10 9 9 9 9 8 9 9 8 9 9 9 9 10 9 9 9 10 10 10 10 11
21 20 18 17 17 18 18 16 14 13 12 12 11 11 11 11 10 10 10 10 10 10 10 10 10 10 10 10 9 9 10 10 10 10 10 10 10 10 10 11 11 11
22 21 19 18 18 18 18 18 16 14 12 12 12 12 12 11 11 11 10 10 10 10 10 11 11 11 11 11 10 10 10 11 11 11 11 11 11 11 11 12 12 12
22 22 21 20 19 18 18 18 17 16 14 13 12 12 11 11 12 11 11 11 10 10 11 11 11 12 13 12 11 11 11 13 13 13 13 13 13 13 12 12 13 13
22 22 22 21 20 18 17 17 17 16 14 13 13 12 12 13 13 12 12 11 10 11 11 10 12 15 14 12 12 13 13 14 15 15 15 15 16 16 14 13 14 14
23 22 22 22 20 17 15 15 16 16 15 15 15 13 14 15 15 13 13 11 10 10 10 11 14 16 14 12 12 13 13 14 14 15 16 16 16 17 15 14 15 15
24 22 21 20 18 17 15 14 15 15 17 17 16 14 15 16 15 15 15 13 10 10 9 11 15 15 14 14 15 15 15 15 14 13 14 14 14 15 15 15 16 16
25 24 22 20 18 16 16 17 17 17 17 17 15 13 15 16 16 16 16 14 12 10 10 13 17 17 17 18 18 18 18 17 17 17 17 16 15 16 16 16 16 18
23 24 24 24 21 19 17 19 20 19 18 16 15 15 16 16 15 16 17 17 16 13 13 17 21 20 20 21 20 21 21 19 20 21 20 20 19 19 19 18 18 20
21 22 24 24 23 23 20 19 20 19 19 18 17 17 17 16 15 15 17 18 17 15 14 19 22 21 21 22 21 21 21 20 20 21 22 21 20 19 20 20 21 23
22 22 23 21 22 24 23 21 20 19 18 18 18 18 19 17 15 16 17 16 16 14 15 19 21 20 20 20 20 20 20 19 20 21 22 22 21 20 21 21 22 24
25 26 24 20 18 20 21 21 20 18 17 17 15 15 15 14 13 15 16 14 14 14 15 18 19 19 19 19 20 21 21 21 22 23 23 23 23 23 23 23 24 25
25 26 24 21 18 18 18 17 17 16 15 14 13 12 12 12 13 15 15 14 14 14 16 19 20 19 20 21 22 22 22 22 22 22 21 21 21 22 22 22 22 23
23 23 23 21 19 18 17 16 17 16 14 13 13 12 11 11 13 16 16 15 15 16 17 19 19 20 20 20 20 21 20 20 19 18 18 18 19 20 19 18 16 16
20 21 20 19 18 16 15 16 17 15 12 11 11 11 11 12 14 16 15 15 16 16 17 18 18 17 17 16 15 14 13 13 12 12 13 13 14 14 14 13 12 12
Wind_Direction
213 216 217 220 225 225 222 223 224 228 228 221 221 224 225 227 227 228 232 238 242 243 247 249 251 253 253 260 262 260 263 260 258 273 282 281 279 278 280 281 281 281
214 216 218 218 224 228 226 226 228 229 230 226 222 220 224 231 234 235 234 237 241 250 258 256 252 253 251 254 262 265 269 269 267 270 276 276 275 278 280 282 283 283
214 217 219 219 222 228 228 231 233 229 225 226 227 224 224 228 233 237 237 235 231 236 252 256 252 256 256 256 263 265 267 274 274 262 263 273 277 275 276 280 283 284
216 217 219 219 221 225 225 227 231 227 220 219 222 222 218 217 221 231 239 241 239 236 243 251 248 247 249 254 263 265 266 275 277 266 263 271 277 276 275 277 278 279
219 217 217 217 218 221 221 221 222 221 219 218 218 219 223 224 222 224 236 247 253 251 250 256 256 250 252 260 264 264 268 276 280 276 272 272 275 278 277 276 277 279
219 219 217 216 217 219 218 218 217 215 217 219 217 218 224 231 229 223 225 234 242 244 243 248 250 245 249 260 263 261 258 253 255 264 271 272 271 271 271 275 277 279
218 219 218 217 218 220 219 217 216 214 214 216 217 217 217 222 228 227 228 229 227 229 230 233 238 237 238 248 258 263 262 255 255 265 271 270 268 267 268 271 274 278
215 216 218 217 216 220 220 217 217 216 215 215 215 219 220 221 225 227 230 228 222 225 226 227 238 244 241 243 251 257 260 257 260 271 276 272 272 274 275 275 275 280
216 214 216 217 215 218 220 218 218 219 219 218 216 220 222 222 221 219 225 226 220 224 227 228 240 246 241 241 247 252 253 250 248 253 260 264 269 272 275 277 276 280
219 216 215 216 216 217 219 219 218 218 220 219 216 218 219 221 220 214 221 228 223 225 234 234 238 241 237 239 247 253 254 253 249 249 252 255 258 261 264 266 270 275
222 219 217 216 216 216 217 219 219 218 219 218 217 218 216 218 220 214 219 228 224 226 238 240 238 238 235 235 241 249 252 251 251 254 256 258 260 264 265 265 268 271
221 219 218 219 220 219 217 217 218 218 218 218 218 219 217 218 220 218 220 225 224 224 232 238 238 238 239 239 237 242 246 245 248 253 256 260 263 265 267 268 268 269
219 218 218 219 222 225 222 217 216 216 218 219 219 220 221 220 220 221 222 225 227 226 229 236 237 237 243 247 242 241 245 246 248 252 255 258 261 263 264 264 265 267
219 218 219 219 222 227 227 222 217 214 216 218 218 219 221 221 222 225 227 229 233 233 231 234 239 241 246 251 251 248 247 248 248 251 254 257 260 262 264 266 267 267
223 224 225 227 229 231 231 227 221 217 217 217 218 219 221 222 221 223 227 229 232 235 235 235 240 244 240 240 250 254 253 253 252 253 256 257 260 262 262 266 270 270
230 231 232 234 236 235 234 231 225 220 220 221 222 220 218 220 221 221 226 231 235 238 240 240 243 246 243 241 251 260 263 266 269 271 272 272 275 277 274 270 271 274
233 234 235 235 234 232 231 231 227 222 219 221 224 224 224 226 225 223 221 224 233 237 238 242 243 244 248 252 256 261 264 269 275 279 280 279 282 284 283 278 275 274
236 234 234 234 232 228 224 224 225 222 221 224 226 227 230 229 226 227 225 223 230 232 234 242 244 244 252 258 260 262 263 268 276 279 278 278 279 279 280 278 276 274
236 235 239 243 241 234 226 222 221 222 223 223 223 223 229 233 233 235 234 231 231 231 231 240 246 251 259 263 264 266 267 270 274 276 278 279 278 276 278 278 277 276
236 239 243 245 243 240 234 224 220 223 223 220 219 222 228 236 242 242 240 238 238 237 237 244 252 257 261 263 265 268 270 272 274 275 277 277 277 276 277 276 274 275
241 243 244 242 240 239 239 231 223 223 225 226 228 231 231 235 241 244 245 245 244 243 245 252 257 259 261 263 265 268 270 272 275 276 277 276 276 276 274 272 271 273
241 245 244 241 238 236 236 235 228 221 224 231 235 234 232 233 236 242 246 247 248 248 251 258 262 261 262 266 268 269 272 273 275 276 277 277 276 275 274 275 275 275
238 242 242 238 236 235 234 234 229 221 219 225 227 226 229 232 234 239 241 240 244 248 252 260 267 269 268 269 270 271 273 273 273 274 276 278 278 277 277 277 277 277
233 233 234 231 231 235 233 225 218 212 206 205 210 215 219 222 228 234 237 240 246 252 256 263 269 270 269 270 272 274 276 275 275 274 275 276 277 277 278 277 278 279
231 228 227 223 224 228 224 209 200 201 198 196 206 215 218 224 234 240 245 249 253 256 258 261 265 267 269 273 276 279 282 282 282 280 278 277 277 278 280 281 281 281
220 216 212 210 213 213 206 196 193 196 198 198 208 219 225 234 241 244 247 250 252 254 256 259 263 267 271 277 282 286 288 288 287 285 282 280 281 282 282 280 277 275
Height
1587 1588 1589 1590 1591 1592 1593 1593 1594 1595 1596 1596 1597 1598 1598 1598 1598 1599 1600 1600 1600 1600 1601 1601 1601 1602 1602 1602 1602 1603 1603 1603 1604 1604 1604 1604 1604 1604 1605 1605 1604 1604
1585 1586 1588 1589 1590 1590 1591 1592 1593 1594 1595 1595 1596 1597 1597 1597 1598 1598 1599 1599 1600 1600 1600 1600 1601 1601 1601 1602 1602 1602 1602 1602 1603 1604 1603 1603 1603 1604 1604 1604 1604 1603
1584 1585 1586 1587 1589 1590 1590 1591 1592 1593 1594 1595 1595 1595 1596 1597 1597 1597 1598 1598 1599 1600 1600 1600 1600 1600 1601 1601 1601 1601 1602 1602 1602 1603 1602 1602 1602 1603 1603 1603 1603 1603
1582 1583 1585 1586 1588 1589 1590 1591 1591 1591 1593 1594 1594 1595 1595 1596 1597 1597 1597 1597 1598 1599 1599 1599 1599 1600 1600 1600 1600 1601 1601 1601 1601 1601 1601 1601 1601 1601 1602 1602 1602 1602
1581 1582 1583 1585 1586 1587 1588 1589 1590 1591 1592 1592 1593 1594 1594 1594 1595 1596 1596 1596 1597 1597 1598 1598 1599 1599 1599 1599 1599 1600 1600 1600 1600 1600 1600 1600 1600 1600 1601 1601 1600 1600
1579 1580 1581 1583 1584 1585 1586 1587 1589 1590 1591 1591 1592 1593 1593 1593 1594 1595 1596 1596 1597 1597 1598 1598 1598 1599 1599 1599 1598 1599 1599 1600 1600 1599 1599 1599 1599 1599 1600 1600 1599 1599
1578 1578 1580 1581 1582 1583 1584 1586 1587 1588 1589 1590 1591 1591 1592 1592 1593 1593 1594 1594 1595 1596 1597 1597 1597 1597 1598 1598 1598 1598 1598 1598 1598 1598 1598 1598 1598 1598 1598 1598 1598 1597
1576 1577 1578 1579 1581 1582 1583 1584 1585 1586 1587 1588 1589 1590 1590 1591 1591 1592 1593 1593 1594 1595 1595 1596 1595 1595 1596 1597 1597 1597 1597 1597 1598 1597 1597 1597 1597 1597 1597 1597 1597 1596
1574 1575 1577 1578 1579 1581 1582 1583 1584 1585 1585 1586 1587 1588 1589 1589 1590 1591 1592 1592 1592 1593 1593 1593 1594 1594 1595 1596 1596 1596 1596 1596 1597 1597 1597 1596 1596 1596 1596 1596 1596 1595
1572 1573 1575 1577 1578 1580 1581 1582 1583 1584 1584 1585 1586 1587 1588 1588 1589 1590 1590 1590 1591 1591 1592 1592 1593 1593 1594 1594 1594 1595 1595 1595 1595 1595 1595 1595 1595 1595 1595 1595 1595 1594
1570 1572 1573 1575 1576 1578 1579 1581 1582 1583 1584 1584 1585 1586 1587 1588 1588 1588 1589 1589 1590 1591 1591 1591 1591 1592 1592 1593 1594 1594 1594 1594 1594 1593 1593 1593 1593 1593 1593 1593 1593 1593
1568 1570 1572 1573 1574 1575 1577 1579 1580 1582 1583 1583 1584 1585 1586 1587 1587 1588 1588 1588 1589 1590 1591 1591 1591 1591 1591 1591 1592 1593 1592 1592 1592 1592 1592 1592 1592 1592 1592 1592 1592 1592
1566 1568 1569 1571 1572 1573 1575 1576 1578 1580 1581 1582 1583 1584 1584 1586 1586 1587 1587 1587 1588 1588 1589 1590 1589 1590 1590 1590 1590 1591 1591 1591 1591 1591 1591 1591 1591 1591 1591 1591 1591 1590
1564 1566 1567 1569 1570 1571 1572 1574 1576 1578 1579 1580 1581 1582 1583 1584 1585 1586 1586 1586 1587 1587 1588 1588 1588 1588 1588 1588 1589 1589 1590 1590 1589 1590 1590 1590 1590 1590 1590 1589 1589 1589
1562 1564 1565 1567 1568 1569 1571 1572 1573 1575 1577 1578 1579 1580 1581 1582 1583 1584 1584 1585 1586 1586 1586 1587 1587 1587 1586 1587 1587 1587 1588 1588 1587 1587 1588 1588 1588 1587 1587 1588 1587 1587
1561 1562 1564 1565 1566 1568 1569 1570 1571 1573 1575 1576 1577 1578 1579 1580 1580 1581 1582 1583 1584 1585 1585 1586 1585 1584 1584 1586 1586 1586 1586 1586 1586 1586 1586 1586 1586 1585 1585 1585 1586 1586
1559 1560 1561 1562 1563 1565 1567 1568 1570 1571 1572 1574 1575 1576 1576 1577 1578 1579 1580 1582 1582 1583 1584 1584 1582 1581 1582 1584 1584 1584 1585 1584 1584 1585 1585 1585 1584 1584 1583 1584 1584 1584
1556 1557 1558 1560 1562 1563 1565 1566 1568 1569 1570 1571 1572 1573 1574 1575 1576 1577 1578 1579 1580 1581 1582 1581 1579 1580 1581 1582 1582 1583 1583 1583 1583 1583 1583 1583 1583 1582 1582 1582 1582 1582
1553 1554 1556 1558 1560 1562 1562 1563 1566 1567 1567 1568 1570 1571 1572 1573 1575 1575 1576 1577 1578 1579 1579 1578 1577 1579 1580 1579 1580 1580 1581 1581 1581 1581 1581 1581 1581 1580 1580 1580 1579 1579
1551 1552 1554 1555 1557 1559 1560 1561 1562 1564 1565 1566 1567 1568 1570 1571 1573 1574 1574 1575 1575 1576 1576 1575 1575 1577 1577 1577 1578 1578 1578 1579 1578 1578 1578 1578 1578 1578 1577 1577 1576 1576
1549 1551 1552 1553 1554 1556 1558 1559 1560 1561 1563 1564 1565 1566 1567 1569 1571 1573 1573 1573 1573 1574 1574 1573 1573 1574 1574 1574 1575 1575 1575 1576 1575 1575 1575 1575 1575 1575 1574 1573 1573 1572
1546 1549 1551 1552 1552 1553 1554 1556 1558 1559 1560 1561 1563 1565 1565 1566 1568 1570 1571 1571 1571 1571 1571 1570 1571 1572 1572 1572 1572 1572 1572 1573 1572 1572 1572 1572 1572 1571 1571 1570 1569 1569
1542 1545 1549 1550 1551 1551 1551 1553 1556 1557 1557 1558 1561 1562 1563 1564 1566 1568 1569 1568 1568 1569 1568 1567 1568 1569 1569 1569 1569 1569 1570 1570 1569 1569 1568 1568 1568 1568 1568 1568 1567 1566
1539 1543 1546 1548 1548 1550 1551 1552 1554 1555 1555 1556 1558 1559 1560 1562 1564 1565 1565 1565 1565 1566 1566 1565 1565 1566 1566 1566 1566 1566 1566 1566 1566 1566 1566 1565 1565 1564 1564 1564 1563 1562
1537 1540 1543 1545 1546 1548 1550 1551 1551 1552 1553 1554 1556 1557 1558 1560 1561 1562 1562 1563 1563 1563 1563 1563 1563 1563 1563 1563 1563 1563 1563 1563 1563 1563 1562 1562 1561 1561 1560 1560 1560 1559
1535 1538 1541 1543 1544 1546 1548 1548 1548 1550 1551 1553 1554 1555 1556 1558 1559 1560 1560 1561 1561 1561 1561 1562 1562 1562 1561 1561 1561 1561 1561 1561 1561 1560 1559 1559 1558 1558 1557 1557 1557 1556